Regional Weather Roundup
Issued by NWS

Home | Current Version | Previous Version | Text Only | Print | Product List | Glossary Off
Versions: 1 2 3 4 5 6 7 8 9 10 11 12 13 14 15 16 17 18 19 20 21 22 23 24 25 26 27 28 29 30 31 32 33 34 35 36 37 38 39 40 41 42 43 44 45 46 47 48 49 50

000
ASUS45 KCYS 112210
RWRWY

WYOMING REGIONAL WEATHER ROUNDUP
NATIONAL WEATHER SERVICE CHEYENNE WY
300 PM MST THU FEB 11 2016

NOTE:  "FAIR" INDICATES FEW OR NO CLOUDS BELOW 12,000 FEET
WITH NO SIGNIFICANT WEATHER AND/OR OBSTRUCTIONS TO VISIBILITY.

WYZ001-112300-
YELLOWSTONE NATIONAL PARK

CITY           SKY/WX    TMP DP  RH WIND       PRES   REMARKS
LK YELLOWSTONE   N/A     43  18  36 VRB7      30.32F
W YELLOWSTONE  NOT AVBL

$$
WYZ002>013-054>058-071-098>099-112300-
NORTHERN WYOMING

CITY           SKY/WX    TMP DP  RH WIND       PRES   REMARKS
JACKSON        MOSUNNY   36  21  55 CALM      30.31F
CODY           FAIR      55  18  22 N13G23    30.16S
GREYBULL       FAIR      61  20  20 N18G29    30.13F
WORLAND        FAIR      51  28  41 SW7       30.18R
SHERIDAN       FAIR      56  24  29 NW25G36   30.13S
BUFFALO        FAIR      51  25  36 N20       30.15R
GILLETTE       FAIR      52  25  35 NW20G29   30.11R
HULETT         MOCLDY    50  27  40 NW24G36   30.10R
NEWCASTLE      FAIR      52  21  30 NW31G38   30.09R

$$
WYZ014>020-022>026-101>103-112300-
CENTRAL WYOMING

CITY           SKY/WX    TMP DP  RH WIND       PRES   REMARKS
BIG PINEY      FAIR      46  23  40 CALM      30.32S
PINEDALE         N/A     43  23  45 NE5       30.33S
DUBOIS         FAIR      46  16  29 NW14G26   30.25R
LANDER         FAIR      50  25  37 N6        30.17S
RIVERTON       FAIR      46  24  42 E3        30.20R
CASPER         FAIR      43  27  53 SW16G23   30.18R
DOUGLAS        FAIR      50  27  40 NW13      30.17S

$$
WYZ021-027>030-104>119-112300-
SOUTHERN WYOMING

CITY           SKY/WX    TMP DP  RH WIND       PRES   REMARKS
EVANSTON       FAIR      41  20  43 W7        30.37F
KEMMERER       FAIR      41  23  48 NW8       30.37S
FORT BRIDGER   PTCLDY    45  25  45 W18       30.38F
ROCK SPRINGS   FAIR      43  22  43 W24G35    30.31F
DIXON          FAIR      43  18  36 S8        30.36S
RAWLINS        FAIR      38  23  55 W22       30.27S WCI  27
SARATOGA       FAIR      41  25  52 W9        30.29R
LARAMIE        FAIR      49  25  39 W22G30    30.18F
CHEYENNE       FAIR      52  24  33 NW28G43   30.11S
TORRINGTON     FAIR      56  25  30 NW21G29   30.12R
PINE BLUFFS    FAIR      52  23  32 NW26      30.15S

$$



USA.gov is the U.S. government's official web portal to all federal, state and local government web resources and services.